This is the latest recevied weather packets stored in our database for station/object KE2HEH. If no packets are shown the sender has not sent any weather packets the latest 10 day(s).
| Time | Temp. | Humidity | Pressure | Rain* | Wind** | Luminosity | Snow |
|---|---|---|---|---|---|---|---|
| 1777495305 | 10.56° C | 86% | 1013.8 hPa | 0 mm | - | 148 W/m² | - |
| 1777495003 | 10.56° C | 85% | 1014.2 hPa | 0 mm | - | 113 W/m² | - |
| 1777494700 | 11.11° C | 85% | 1014 hPa | 0 mm | - | 150 W/m² | - |
| 1777494397 | 10.56° C | 85% | 1014 hPa | 0 mm | - | 150 W/m² | - |
| 1777494093 | 10.56° C | 84% | 1014 hPa | 0 mm | - | 162 W/m² | - |
| 1777493791 | 11.11° C | 84% | 1014.1 hPa | 0 mm | - | 215 W/m² | - |
| 1777493490 | 10.56° C | 84% | 1014 hPa | 0 mm | - | 368 W/m² | - |
| 1777493186 | 10.56° C | 84% | 1013.8 hPa | 0 mm | - | 265 W/m² | - |
| 1777492882 | 10.56° C | 83% | 1014.1 hPa | 0 mm | - | 252 W/m² | - |
| 1777492579 | 11.11° C | 82% | 1014.2 hPa | 0 mm | - | 239 W/m² | - |
| 1777492274 | 11.11° C | 83% | 1014.5 hPa | 0 mm | - | 216 W/m² | - |
| 1777491972 | 11.67° C | 82% | 1014.5 hPa | 0 mm | - | 185 W/m² | - |
| 1777491668 | 11.67° C | 82% | 1014.8 hPa | 0 mm | - | 286 W/m² | - |
| 1777491367 | 11.11° C | 82% | 1015.4 hPa | 0 mm | - | 236 W/m² | - |
| 1777491063 | 11.67° C | 82% | 1015.1 hPa | 0 mm | - | 244 W/m² | - |
| 1777490763 | 11.11° C | 81% | 1015.2 hPa | 0 mm | - | 390 W/m² | - |
| 1777490460 | 11.67° C | 82% | 1015.4 hPa | 0 mm | - | 265 W/m² | - |
| 1777490156 | 11.67° C | 81% | 1015.3 hPa | 0 mm | - | 246 W/m² | - |
| 1777489855 | 11.67° C | 81% | 1015.4 hPa | 0 mm | - | 297 W/m² | - |
| 1777489551 | 12.22° C | 81% | 1015.4 hPa | 0 mm | - | 343 W/m² | - |
| 1777489249 | 11.67° C | 81% | 1015.4 hPa | 0 mm | - | 320 W/m² | - |
| 1777488945 | 12.22° C | 82% | 1015.8 hPa | 0 mm | - | 381 W/m² | - |
| 1777488642 | 12.22° C | 80% | 1016 hPa | 0 mm | - | 421 W/m² | - |
| 1777488340 | 12.22° C | 80% | 1016 hPa | 0 mm | - | 342 W/m² | - |
| 1777488038 | 12.78° C | 79% | 1015.7 hPa | 0 mm | - | 729 W/m² | - |
* Rain latest hour (hover to see other rain measurements)
** Current wind speed in m/s (hover to see current wind gust speed)